| time (UTC) | temp F | wind direction | speed MPH | gust MPH | rain 1hr in | rain 24hr in | rain mn in | humidity % | barometer mb |
| 20260505164601 | 71 | 191 | 7.0 | 12.0 | 0.00 | 0.00 | 0.00 | 52 | 1010.2 |
| 20260505163100 | 70 | 194 | 9.0 | 14.0 | 0.00 | 0.00 | 0.00 | 54 | 1010.3 |
| 20260505161553 | 70 | 183 | 7.0 | 14.0 | 0.00 | 0.00 | 0.00 | 56 | 1010.4 |
| 20260505153115 | 71 | 182 | 7.0 | 14.0 | 0.00 | 0.00 | 0.00 | 52 | 1010.9 |
| 20260505151600 | 70 | 176 | 8.0 | 14.0 | 0.00 | 0.00 | 0.00 | 55 | 1011.1 |
| 20260505140107 | 65 | 177 | 11.0 | 16.0 | 0.00 | 0.00 | 0.00 | 64 | 1011.4 |
| 20260505124555 | 65 | 201 | 8.0 | 14.0 | 0.00 | 0.00 | 0.00 | 62 | 1011.1 |
| 20260505123104 | 63 | 170 | 8.0 | 15.0 | 0.00 | 0.00 | 0.00 | 65 | 1011.2 |
| 20260505121556 | 62 | 179 | 7.0 | 10.0 | 0.00 | 0.00 | 0.00 | 66 | 1011.0 |
| 20260505120059 | 62 | 181 | 6.0 | 11.0 | 0.00 | 0.00 | 0.00 | 67 | 1011.2 |
| 20260505114558 | 61 | 165 | 5.0 | 12.0 | 0.00 | 0.00 | 0.00 | 69 | 1011.0 |
| 20260505113101 | 60 | 166 | 5.0 | 10.0 | 0.00 | 0.00 | 0.00 | 70 | 1011.3 |
| 20260505111601 | 60 | 171 | 5.0 | 11.0 | 0.00 | 0.00 | 0.00 | 69 | 1011.2 |
| 20260505101602 | 59 | 173 | 7.0 | 10.0 | 0.00 | 0.00 | 0.00 | 72 | 1011.1 |
| 20260505100057 | 60 | 175 | 6.0 | 12.0 | 0.00 | 0.00 | 0.00 | 70 | 1010.9 |
| 20260505094603 | 60 | 180 | 6.0 | 11.0 | 0.00 | 0.00 | 0.00 | 69 | 1010.4 |
| 20260505093058 | 60 | 171 | 7.0 | 12.0 | 0.00 | 0.00 | 0.00 | 69 | 1010.2 |
| 20260505091600 | 60 | 191 | 7.0 | 13.0 | 0.00 | 0.00 | 0.00 | 68 | 1010.4 |
| 20260505090059 | 60 | 158 | 7.0 | 11.0 | 0.00 | 0.00 | 0.00 | 68 | 1010.4 |
| 20260505084554 | 60 | 165 | 10.0 | 16.0 | 0.00 | 0.00 | 0.00 | 67 | 1010.2 |
| 20260505083100 | 60 | 179 | 6.0 | 11.0 | 0.00 | 0.00 | 0.00 | 66 | 1010.3 |
| 20260505081601 | 61 | 179 | 8.0 | 12.0 | 0.00 | 0.00 | 0.00 | 65 | 1010.3 |
| 20260505080059 | 61 | 163 | 6.0 | 14.0 | 0.00 | 0.00 | 0.00 | 65 | 1010.2 |
| 20260505074610 | 61 | 162 | 8.0 | 12.0 | 0.00 | 0.00 | 0.00 | 65 | 1010.3 |
| 20260505073100 | 61 | 176 | 8.0 | 12.0 | 0.00 | 0.00 | 0.00 | 64 | 1010.1 |
| 20260505071600 | 61 | 163 | 5.0 | 10.0 | 0.00 | 0.00 | 0.00 | 65 | 1010.2 |
| 20260505070056 | 61 | 167 | 8.0 | 14.0 | 0.00 | 0.00 | 0.00 | 62 | 1010.2 |
| 20260505064556 | 61 | 166 | 8.0 | 13.0 | 0.00 | 0.00 | 0.00 | 63 | 1010.1 |
| 20260505063058 | 61 | 177 | 8.0 | 14.0 | 0.00 | 0.00 | 0.00 | 63 | 1010.3 |
| 20260505061628 | 62 | 188 | 8.0 | 14.0 | 0.00 | 0.00 | 0.00 | 62 | 1010.4 |
| 20260505060100 | 62 | 179 | 8.0 | 16.0 | 0.00 | 0.00 | 0.00 | 61 | 1010.3 |
| 20260505054616 | 62 | 184 | 8.0 | 16.0 | 0.00 | 0.00 | 0.00 | 61 | 1010.4 |
| 20260505053057 | 62 | 173 | 10.0 | 16.0 | 0.00 | 0.00 | 0.00 | 60 | 1010.4 |
| 20260505051559 | 62 | 189 | 11.0 | 19.0 | 0.00 | 0.00 | 0.00 | 59 | 1010.7 |
| 20260505041602 | 62 | 174 | 10.0 | 17.0 | 0.00 | 0.00 | 0.00 | 59 | 1010.8 |
| 20260505034600 | 62 | 177 | 13.0 | 22.0 | 0.00 | 0.00 | 0.00 | 59 | 1011.0 |
| 20260505033058 | 62 | 183 | 11.0 | 18.0 | 0.00 | 0.00 | 0.00 | 58 | 1010.9 |
| 20260505031601 | 63 | 188 | 10.0 | 18.0 | 0.00 | 0.00 | 0.00 | 55 | 1011.0 |
| 20260505030056 | 63 | 193 | 11.0 | 18.0 | 0.00 | 0.00 | 0.00 | 54 | 1011.1 |
| 20260505024608 | 63 | 178 | 9.0 | 19.0 | 0.00 | 0.00 | 0.00 | 54 | 1011.2 |
| 20260505023101 | 64 | 210 | 12.0 | 23.0 | 0.00 | 0.00 | 0.00 | 52 | 1011.2 |
| 20260505021613 | 64 | 193 | 10.0 | 18.0 | 0.00 | 0.00 | 0.00 | 52 | 1011.3 |
| 20260505014555 | 64 | 179 | 10.0 | 17.0 | 0.00 | 0.00 | 0.00 | 53 | 1011.2 |
| 20260505013058 | 64 | 193 | 8.0 | 18.0 | 0.00 | 0.00 | 0.00 | 55 | 1011.2 |
| 20260505011558 | 63 | 167 | 9.0 | 15.0 | 0.00 | 0.00 | 0.00 | 57 | 1010.9 |
| 20260505010057 | 63 | 207 | 11.0 | 19.0 | 0.00 | 0.00 | 0.00 | 58 | 1010.9 |
| 20260505004557 | 64 | 140 | 9.0 | 17.0 | 0.00 | 0.00 | 0.00 | 57 | 1010.4 |
| 20260505003054 | 65 | 177 | 6.0 | 11.0 | 0.00 | 0.00 | 0.00 | 52 | 1010.2 |
| 20260505001557 | 66 | 205 | 6.0 | 11.0 | 0.00 | 0.00 | 0.00 | 50 | 1010.0 |
| 20260505000058 | 67 | 132 | 7.0 | 12.0 | 0.00 | 0.00 | 0.00 | 46 | 1009.8 |
| 20260504234555 | 67 | 173 | 7.0 | 12.0 | 0.00 | 0.00 | 0.00 | 46 | 1009.6 |
| 20260504233101 | 68 | 156 | 5.0 | 15.0 | 0.00 | 0.00 | 0.00 | 43 | 1009.4 |
| 20260504231557 | 68 | 202 | 8.0 | 14.0 | 0.00 | 0.00 | 0.00 | 44 | 1009.2 |
| 20260504230058 | 69 | 206 | 9.0 | 15.0 | 0.00 | 0.00 | 0.00 | 40 | 1009.0 |
| 20260504224554 | 69 | 199 | 6.0 | 11.0 | 0.00 | 0.00 | 0.00 | 43 | 1009.1 |
| 20260504223102 | 69 | 191 | 7.0 | 13.0 | 0.00 | 0.00 | 0.00 | 42 | 1009.1 |
| 20260504221606 | 70 | 177 | 10.0 | 18.0 | 0.00 | 0.00 | 0.00 | 35 | 1009.2 |
| 20260504220132 | 69 | 175 | 9.0 | 20.0 | 0.00 | 0.00 | 0.00 | 37 | 1009.4 |
| 20260504214555 | 69 | 193 | 9.0 | 17.0 | 0.00 | 0.00 | 0.00 | 36 | 1009.4 |
| 20260504213122 | 70 | 168 | 9.0 | 22.0 | 0.00 | 0.00 | 0.00 | 36 | 1009.5 |
| 20260504211555 | 69 | 201 | 7.0 | 14.0 | 0.00 | 0.00 | 0.00 | 36 | 1009.5 |
| 20260504210101 | 69 | 183 | 8.0 | 23.0 | 0.00 | 0.00 | 0.00 | 36 | 1009.5 |
| 20260504204609 | 70 | 216 | 7.0 | 20.0 | 0.00 | 0.00 | 0.00 | 36 | 1009.4 |
| 20260504203056 | 69 | 188 | 9.0 | 16.0 | 0.00 | 0.00 | 0.00 | 36 | 1009.5 |
| 20260504201609 | 69 | 200 | 8.0 | 18.0 | 0.00 | 0.00 | 0.00 | 36 | 1009.4 |
| 20260504200107 | 67 | 204 | 6.0 | 13.0 | 0.00 | 0.00 | 0.00 | 41 | 1009.7 |
| 20260504194552 | 68 | 198 | 16.0 | 23.0 | 0.00 | 0.00 | 0.00 | 38 | 1009.9 |
| 20260504193055 | 67 | 191 | 7.0 | 16.0 | 0.00 | 0.00 | 0.00 | 40 | 1009.9 |
| 20260504191555 | 67 | 196 | 13.0 | 19.0 | 0.00 | 0.00 | 0.00 | 37 | 1010.1 |
| 20260504190054 | 67 | 202 | 9.0 | 19.0 | 0.00 | 0.00 | 0.00 | 36 | 1010.2 |
| 20260504184600 | 67 | 233 | 10.0 | 22.0 | 0.00 | 0.00 | 0.00 | 39 | 1010.7 |
| 20260504183056 | 67 | 206 | 10.0 | 21.0 | 0.00 | 0.00 | 0.00 | 38 | 1010.6 |
| 20260504181554 | 66 | 218 | 12.0 | 26.0 | 0.00 | 0.00 | 0.00 | 37 | 1010.8 |
| 20260504180058 | 66 | 222 | 17.0 | 26.0 | 0.00 | 0.00 | 0.00 | 39 | 1011.1 |
| 20260504174556 | 65 | 210 | 10.0 | 25.0 | 0.00 | 0.00 | 0.00 | 39 | 1011.4 |
| 20260504173059 | 65 | 229 | 14.0 | 19.0 | 0.00 | 0.00 | 0.00 | 41 | 1011.4 |
| 20260504171557 | 65 | 169 | 14.0 | 22.0 | 0.00 | 0.00 | 0.00 | 39 | 1011.4 |